Current Weather Conditions
Home Hang gliding Paragliding Powered Parachute Powered Paragliding Skydiving Ultralight Weather Aviation Shirts
WEATHER DATA:
Weather observations for the past three days for
Dublin / New River Valley
Imperial (Metric)
Date Time (edt) Wind (mph) Vis. (mi.) Weather Sky Cond. Temperature (F) Relative Humidity Wind Chill (F) Heat Index (F) Pressure Precipitation (in)
Air Dwpt 6 hour altimeter (in) sea level (mb) 1 hr 3 hr 6 hr
Max. Min.
24 22:35 SW 3 10.00 Light Rain OVC065 72 70 94% 30.25 0.0
24 22:15 Calm 10.00 Overcast SCT026 OVC065 72 70 94% 30.25 0.0
24 21:55 Calm 10.00 Overcast SCT026 SCT039 OVC075 72.3 70.2 93% 30.25 0.0
24 21:35 Calm 10.00 Overcast OVC075 72.9 69.8 90% 30.25 0.0
24 21:15 Calm 10.00 Overcast SCT065 OVC075 72.5 69.8 91% 30.24 0.0
24 20:55 Calm 10.00 Mostly Cloudy BKN075 BKN090 72.7 69.8 91% 30.24 0.0
24 20:35 Calm 10.00 Fair CLR 73.6 69.8 88% 30.23 0.0
24 20:15 S 3 10.00 Fair CLR 73.9 70 88% 30.22 0.0
24 19:55 Calm 10.00 Partly Cloudy SCT025 74.8 69.1 76.6 71.6 82% 30.22 0.0 0.01
24 19:35 S 3 10.00 Partly Cloudy SCT025 SCT030 75.2 69.6 83% 75 30.22 0.0
24 19:15 S 3 10.00 Mostly Cloudy BKN022 BKN028 75.6 70 83% 76 30.21 0.0
24 18:55 SE 3 10.00 Mostly Cloudy BKN022 BKN030 76.5 69.4 79% 78 30.2 0.0
24 18:35 Calm 10.00 Mostly Cloudy SCT022 BKN030 BKN035 76.5 68.2 76% 78 30.19 0.0
24 18:15 Calm 10.00 Mostly Cloudy SCT030 BKN036 BKN041 76.3 67.3 74% 78 30.2 0.0
24 17:55 Calm 10.00 Overcast SCT030 BKN037 OVC050 75.6 67.8 77% 77 30.21 0.0
24 17:35 Calm 10.00 Overcast SCT028 BKN042 OVC050 75.2 67.6 77% 76 30.22 0.0
24 17:15 NE 3 10.00 Overcast SCT028 SCT033 OVC041 75 68 79% 76 30.22 0.0
24 16:55 NE 5 10.00 Overcast SCT024 BKN043 OVC080 75.2 68 78% 76 30.22 0.0 0.01
24 16:35 N 5 10.00 Mostly Cloudy SCT022 BKN030 BKN038 75 67.6 78% 76 30.22 0.0
24 16:15 NW 5 10.00 Partly Cloudy SCT036 SCT042 SCT075 75.2 67.3 77% 76 30.22 0.0
24 15:55 Calm 10.00 Mostly Cloudy SCT023 SCT030 BKN075 74.1 67.5 80% 30.22 0.0
24 15:35 N 6 10.00 Overcast SCT016 OVC023 72.7 67.5 84% 30.23 0.0
24 15:15 N 7 10.00 Overcast BKN016 BKN023 OVC060 72.9 68 85% 30.24 0.0
24 14:55 NW 5 10.00 Light Rain SCT018 SCT032 BKN040 73.8 68.9 85% 30.24 0.0 0.01
24 14:35 W 7 10.00 Mostly Cloudy SCT027 BKN033 BKN046 74.3 69.4 85% 30.25 0.0 0.01
24 14:15 NW 6 10.00 Light Rain SCT020 BKN029 OVC042 72.5 68.7 88% 30.25 0.0 0.01
24 13:55 Calm 7.00 Rain SCT018 OVC026 71.8 68 73 67.5 88% 30.25 0.0 0.01
24 13:35 Calm 10.00 Overcast OVC028 72.9 66.7 81% 30.25 0.0
24 13:15 SW 5 10.00 Overcast BKN030 BKN037 OVC060 72.9 68.2 85% 30.25 0.0
24 12:55 SW 3 5.00 Rain BKN030 OVC035 71.4 68 89% 30.25 0.0
24 12:35 W 3 10.00 Drizzle SCT016 OVC035 72 67.8 87% 30.26 0.0
24 12:15 W 5 10.00 Light Rain BKN014 OVC040 72.9 67.8 84% 30.25 0.0
24 11:55 W 3 10.00 Overcast BKN012 BKN028 OVC034 72.9 68 85% 30.24 0.0 0.01
24 11:35 W 6 10.00 Light Rain SCT012 BKN030 OVC110 72.3 67.8 86% 30.24 0.0 0.01
24 11:15 W 5 10.00 Light Rain SCT055 SCT075 OVC110 71.4 67.6 88% 30.24 0.0 0.01
24 10:55 W 5 10.00 Light Rain SCT060 BKN070 OVC100 70.9 68.2 91% 30.25 0.0
24 10:35 W 6 7.00 Light Rain SCT041 SCT060 OVC100 70.5 68.5 93% 30.25 0.0
24 10:15 W 5 10.00 Light Rain SCT039 BKN060 OVC070 70 68.2 94% 30.24 0.0
24 09:55 Calm 10.00 Light Rain SCT037 OVC070 69.6 67.8 94% 30.24 0.0
24 09:35 SW 3 10.00 Overcast SCT030 SCT038 OVC070 69.3 67.8 95% 30.23 0.0
24 09:15 Calm 10.00 Overcast BKN028 BKN035 OVC070 68.9 67.3 95% 30.24 0.0
24 08:55 Calm 10.00 Overcast SCT028 BKN070 OVC080 68.4 67.1 96% 30.23 0.0
24 08:35 Calm 10.00 Overcast SCT060 SCT070 OVC090 68 67.1 97% 30.23 0.0
24 07:55 Calm 5.00 Fog/Mist SCT002 OVC022 67.6 67.3 68.5 67.3 99% 30.22 0.0 0.06
24 07:35 NW 3 7.00 Overcast SCT002 BKN024 OVC075 67.6 67.1 98% 30.22 0.0
24 07:15 Calm 7.00 Overcast BKN024 BKN065 OVC085 67.3 66.7 98% 30.21 0.0
24 06:55 Calm 10.00 Overcast BKN065 OVC085 67.5 67.1 99% 30.2 0.0
24 06:35 Calm 10.00 Mostly Cloudy SCT048 BKN060 BKN095 67.6 67.1 98% 30.2 0.0
24 06:15 Calm 10.00 Mostly Cloudy SCT046 BKN070 BKN095 67.8 67.1 98% 30.2 0.0
24 05:55 Calm 10.00 Overcast SCT038 BKN050 OVC070 67.8 67.3 98% 30.2 0.0 0.05
24 05:35 Calm 10.00 Light Drizzle SCT003 BKN037 OVC044 67.3 67.1 99% 30.2 0.0 0.05
24 05:15 Calm 3.00 Heavy Rain SCT003 BKN029 OVC036 67.8 67.5 99% 30.21 0.0 0.04
24 04:55 NW 5 5.00 Fog/Mist SCT003 BKN035 OVC050 68.2 68 99% 30.2 0.0 0.01 0.01
24 04:35 Calm 7.00 Overcast SCT003 BKN050 OVC095 68.2 68 99% 30.19 0.0
24 04:15 Calm 7.00 Overcast SCT050 BKN080 OVC095 68.2 68 99% 30.19 0.0
24 03:35 Calm 7.00 Overcast OVC090 68 67.8 99% 30.19 0.0
24 03:15 Calm 7.00 Overcast OVC080 68.2 68 99% 30.19 0.0
24 02:55 Calm 7.00 Overcast OVC080 68.4 68 99% 30.19 0.0
24 02:35 Calm 10.00 Overcast SCT036 BKN060 OVC080 68.4 68.2 99% 30.19 0.0
24 02:15 Calm 7.00 Overcast SCT036 OVC060 68.2 68 99% 30.19 0.0
24 01:55 Calm 10.00 Overcast BKN060 OVC070 68.4 68.2 72.9 68.2 99% 30.19 0.0 0.05
24 01:35 Calm 5.00 Fog/Mist SCT001 OVC060 68.2 68 99% 30.19 0.0
24 01:15 Calm 2.50 Fog/Mist BKN001 BKN065 68.2 68 99% 30.19 0.0
24 00:55 Calm 5.00 Fog/Mist SCT001 BKN075 68.2 68 99% 30.19 0.0
24 00:35 W 3 7.00 Fair CLR 68.4 68 99% 30.2 0.0
24 00:15 Calm 10.00 Fair CLR 68.4 68 99% 30.19 0.0
23 23:55 SE 3 5.00 Fog/Mist SCT060 SCT075 BKN110 68.5 68.2 99% 30.19 0.0
23 23:35 Calm 10.00 Overcast SCT090 OVC110 68.9 68 97% 30.19 0.0
23 23:15 Calm 10.00 Light Rain SCT050 SCT070 OVC090 69.1 68 96% 30.2 0.0
23 22:55 S 3 7.00 Light Rain SCT070 OVC080 69.1 68.2 97% 30.21 0.0 0.05 0.05
23 22:35 Calm 7.00 Rain SCT055 BKN090 OVC110 69.3 67.6 95% 30.2 0.0 0.02
23 22:15 Calm 10.00 Rain SCT055 BKN070 OVC110 70.3 67.6 91% 30.2 0.0
23 21:55 Calm 10.00 Mostly Cloudy SCT055 BKN070 BKN080 70.2 67.6 92% 30.19 0.0
23 21:15 NW 3 10.00 Mostly Cloudy SCT035 BKN085 BKN110 69.8 68 94% 30.19 0.0
23 20:55 N 3 10.00 Overcast SCT037 BKN085 OVC120 70.3 68 92% 30.18 0.0
23 20:35 NW 3 10.00 Overcast SCT039 SCT060 OVC120 71.2 68.9 92% 30.17 0.0
23 20:15 Calm 10.00 Light Rain SCT050 SCT075 OVC110 72 68.4 89% 30.17 0.0
23 19:55 Calm 7.00 Rain SCT055 SCT065 BKN120 73 68.2 82.8 70.3 85% 30.16 0.0 0.3
23 19:35 N 3 10.00 Mostly Cloudy SCT043 BKN055 BKN065 73.6 68.5 84% 30.16 0.0
23 19:15 Calm 10.00 Overcast SCT028 BKN045 OVC120 72.7 67.8 85% 30.15 0.0
23 18:55 NW 5 10.00 Mostly Cloudy SCT030 SCT045 BKN120 71.8 68 88% 30.14 0.0
23 18:35 NW 6 10.00 Mostly Cloudy SCT043 BKN065 71.6 68 88% 30.14 0.0
23 18:15 N 8 10.00 Overcast SCT043 OVC065 72.9 69.3 89% 30.14 0.0
23 17:55 Calm 10.00 Overcast SCT065 OVC070 73.4 68.7 85% 30.14 0.0
23 17:35 Calm 10.00 Overcast SCT065 OVC075 73.6 69.4 87% 30.14 0.0
23 17:15 NW 5 10.00 Mostly Cloudy SCT075 SCT095 BKN110 73.6 70.9 91% 30.14 0.0
23 16:55 Calm 10.00 Overcast SCT027 SCT055 OVC110 72.9 70.2 91% 30.13 0.0 0.06 0.3
23 16:35 Calm 10.00 Overcast SCT021 BKN055 OVC090 71.2 69.3 94% 30.14 0.0 0.06
23 16:15 Calm 2.50 Heavy Rain SCT017 BKN050 OVC090 70.7 69.1 95% 30.15 0.0 0.05
23 15:55 Calm 1.50 Heavy Rain SCT014 BKN048 OVC065 70.7 69.1 95% 30.16 0.0 0.24
23 15:35 N 6 5.00 Heavy Rain SCT026 BKN035 OVC065 71.8 69.1 91% 30.15 0.0 0.09
23 15:15 N 3 5.00 Rain BKN028 BKN034 OVC047 73.8 68.2 83% 30.14 0.0 0.02
23 14:55 Calm 10.00 Overcast SCT028 BKN036 OVC055 78.1 66.4 67% 80 30.14 0.0
23 14:35 S 5 10.00 Mostly Cloudy SCT031 SCT040 BKN065 82.6 66.9 59% 85 30.14 0.0
23 14:15 SE 5 10.00 Mostly Cloudy SCT031 SCT040 BKN110 80.8 67.8 65% 83 30.15 0.0
23 13:55 Calm 10.00 Thunderstorm SCT040 SCT065 BKN090 79.7 66.2 80.6 66.7 63% 82 30.14 0.0
23 13:35 Calm 10.00 Light Rain SCT033 SCT043 OVC100 79.3 68.4 69% 82 30.16 0.0
23 13:15 Calm 10.00 Partly Cloudy SCT033 SCT040 SCT070 80.2 66.6 63% 82 30.16 0.0
23 12:55 W 3 10.00 Partly Cloudy SCT035 SCT043 80.1 66.7 64% 82 30.16 0.0
23 12:35 Calm 10.00 Partly Cloudy SCT039 SCT046 79.5 67.3 66% 82 30.17 0.0
23 12:15 W 3 10.00 Fair CLR 78.3 66.4 67% 80 30.17 0.0
23 11:55 Calm 10.00 Partly Cloudy SCT065 77.2 66.2 69% 79 30.17 0.0
23 11:35 Calm 10.00 Mostly Cloudy BKN055 76.5 67.8 75% 78 30.18 0.0
23 11:15 Calm 10.00 Mostly Cloudy SCT014 BKN065 BKN075 75.7 67.1 75% 77 30.18 0.0
23 10:55 Calm 10.00 Mostly Cloudy SCT014 BKN065 74.5 68.2 81% 30.18 0.0
23 10:35 Calm 10.00 Partly Cloudy SCT075 73.6 67.3 81% 30.18 0.0
23 10:15 Calm 10.00 Partly Cloudy SCT007 SCT075 SCT085 72.1 67.6 86% 30.17 0.0
23 09:55 Calm 10.00 Overcast SCT007 BKN075 OVC085 70 67.6 92% 30.17 0.0
23 09:35 S 3 10.00 Mostly Cloudy BKN070 69.6 67.6 93% 30.17 0.0
23 09:15 Calm 10.00 Mostly Cloudy SCT070 BKN080 68.5 67.8 98% 30.17 0.0
23 08:55 Calm 10.00 Partly Cloudy SCT080 67.6 67.6 100% 30.17 0.0
23 08:35 Calm 7.00 Mostly Cloudy BKN001 BKN065 67.1 67.1 100% 30.17 0.0
23 08:15 Calm 4.00 Fog/Mist BKN001 OVC075 67.1 67.1 100% 30.16 0.0
23 07:55 Calm 5.00 Fog/Mist SCT001 SCT075 66.7 66.7 66.7 65.3 100% 30.16 0.0
23 07:35 Calm 1.75 Fog/Mist BKN001 66.4 66.4 100% 30.16 0.0
23 07:15 Calm 0.15 Fog OVC001 65.8 65.8 100% 30.15 0.0
23 06:55 Calm 0.15 Fog OVC001 65.5 65.5 100% 30.14 0.0
23 06:35 Calm 0.15 Fog OVC001 65.5 65.5 100% 30.13 0.0
23 06:15 Calm 0.75 Fog/Mist OVC001 65.5 65.5 100% 30.13 0.0
23 05:55 S 3 1.25 Fog/Mist OVC001 65.5 65.5 100% 30.13 0.0
23 05:35 Calm 4.00 Fog/Mist BKN001 BKN060 BKN085 66.2 66.2 100% 30.12 0.0
23 05:15 Calm 3.00 Fog/Mist BKN001 BKN060 OVC085 66.2 66.2 100% 30.12 0.0
23 04:55 Calm 3.00 Fog/Mist OVC001 66.2 66.2 100% 30.12 0.0
23 04:35 Calm 3.00 Fog/Mist BKN001 OVC070 66.2 66.2 100% 30.11 0.0
23 04:15 Calm 0.75 Fog/Mist OVC001 66.2 66.2 100% 30.11 0.0
23 03:55 Calm 0.50 Fog OVC001 66 66 100% 30.11 0.0
23 03:35 Calm 0.50 Fog OVC001 66.2 66.2 100% 30.12 0.0
23 03:15 Calm 1.00 Fog/Mist OVC001 65.8 65.8 100% 30.11 0.0
23 02:55 Calm 2.00 Fog/Mist BKN001 BKN080 66.2 66.2 100% 30.12 0.0
23 02:35 Calm 0.50 Fog OVC001 66.2 66.2 100% 30.12 0.0
23 02:15 SW 3 0.25 Fog OVC001 66.2 66.2 100% 30.12 0.0
23 01:55 Calm 0.25 Fog OVC003 66.6 66.4 72.3 65.7 99% 30.12 0.0 0.01 0.01
23 01:35 Calm 3.00 Fog/Mist BKN003 66 65.8 99% 30.12 0.0
23 01:15 Calm 5.00 Fog/Mist BKN003 65.8 65.5 99% 30.12 0.0
23 00:55 Calm 7.00 Mostly Cloudy BKN003 66 65.7 99% 30.13 0.0
23 00:35 Calm 5.00 Fog/Mist SCT003 66.4 66.2 99% 30.12 0.0
23 00:15 Calm 7.00 Fair CLR 66.4 66.2 99% 30.12 0.0
22 23:55 W 3 5.00 Fog/Mist CLR 66.7 66.4 99% 30.11 0.0
22 23:35 W 3 7.00 Fair CLR 67.1 66.4 98% 30.11 0.0
22 23:15 Calm 10.00 Partly Cloudy SCT009 SCT048 SCT055 67.3 66.7 98% 30.12 0.0
22 22:55 Calm 10.00 Overcast SCT005 OVC048 67.1 66.6 98% 30.12 0.0
22 22:35 E 3 7.00 Overcast OVC005 67.5 67.1 99% 30.12 0.0
22 22:15 Calm 10.00 Mostly Cloudy BKN005 BKN060 67.6 66.7 97% 30.12 0.0
22 21:55 E 3 10.00 Mostly Cloudy SCT003 BKN080 68 66.7 96% 30.1 0.0
22 21:35 Calm 10.00 Overcast OVC080 69.1 67.3 94% 30.1 0.0
22 21:15 Calm 10.00 Overcast OVC080 69.1 67.1 93% 30.09 0.0
22 20:55 Calm 10.00 Thunderstorm in Vicinity SCT060 OVC080 69.1 66.2 91% 30.08 0.0
22 20:35 SW 5 10.00 Thunderstorm SCT045 BKN060 BKN080 70 66.6 89% 30.08 0.0
22 20:15 SW 7 7.00 Light Rain SCT037 BKN043 OVC065 70.9 67.5 89% 30.07 0.0
22 19:55 SW 3 5.00 Thunderstorm Light Rain in Vicinity SCT028 OVC038 72.5 66.7 78.3 71.4 82% 30.06 0.0 0.3 0.33
22 19:35 Calm 1.25 Light Rain SCT014 BKN034 OVC040 71.6 67.3 86% 30.04 0.0 0.14
22 19:15 SW 8 10.00 Partly Cloudy SCT080 SCT090 77 68.4 75% 79 30.03 0.0
22 18:55 SW 7 10.00 Partly Cloudy SCT034 SCT041 SCT048 77.5 69.1 75% 79 30.03 0.0
22 18:35 SW 8 10.00 Mostly Cloudy SCT034 BKN044 BKN050 77 68.9 76% 79 30.03 0.0
22 18:15 S 7 10.00 Partly Cloudy SCT044 SCT050 77.5 68.9 75% 79 30.02 0.0
22 17:55 S 6 10.00 Partly Cloudy SCT048 SCT055 77.4 68.2 73% 79 30.03 0.0
22 17:35 SW 10 10.00 Fair CLR 77.9 68 72% 80 30.03 0.0
22 17:15 S 7 10.00 Fair CLR 77.4 67.5 72% 79 30.04 0.0
22 16:35 S 7 10.00 Fair CLR 77.5 67.8 72% 79 30.04 0.0
22 16:15 S 3 10.00 Fair CLR 75.9 67.6 76% 77 30.05 0.0
22 15:55 S 6 10.00 Partly Cloudy SCT095 SCT120 74.7 68.4 81% 30.06 0.0 0.03
22 15:35 SW 9 10.00 Mostly Cloudy SCT035 SCT060 BKN100 72.9 68.9 87% 30.06 0.0 0.03
22 15:15 S 14 G 18 4.00 Heavy Rain SCT035 BKN090 OVC110 72.5 68 86% 30.07 0.0 0.02
22 14:55 S 14 10.00 Partly Cloudy SCT065 SCT075 SCT110 76.6 67.6 74% 78 30.07 0.0
22 14:35 S 12 10.00 Partly Cloudy SCT100 SCT120 76.5 68.2 76% 78 30.06 0.0
22 14:15 S 10 10.00 Partly Cloudy SCT027 SCT100 SCT120 77 67.8 73% 79 30.08 0.0
22 13:55 S 8 10.00 Partly Cloudy SCT029 SCT037 SCT100 78.3 67.8 79.5 67.5 70% 80 30.07 0.0
22 13:35 S 6 10.00 Mostly Cloudy BKN030 BKN037 BKN110 79.2 67.8 68% 82 30.08 0.0
22 13:15 SW 5 10.00 Mostly Cloudy BKN027 BKN110 78.4 67.1 68% 81 30.08 0.0
22 12:55 S 6 10.00 Overcast SCT027 BKN040 OVC110 77.4 66.9 70% 79 30.09 0.0
22 12:35 SW 5 10.00 Mostly Cloudy SCT021 SCT033 BKN040 77 67.3 72% 79 30.1 0.0
22 12:15 S 5 10.00 Mostly Cloudy SCT023 SCT030 BKN036 76.5 67.6 74% 78 30.1 0.0
22 11:55 W 3 10.00 Mostly Cloudy SCT021 SCT030 BKN044 76.1 67.8 76% 77 30.1 0.0
22 11:35 S 5 10.00 Mostly Cloudy SCT016 SCT021 BKN030 74.8 68.5 81% 30.1 0.0
22 11:15 S 5 10.00 Mostly Cloudy BKN014 BKN020 BKN028 73.8 68 82% 30.11 0.0
22 10:55 Calm 10.00 Light Rain BKN014 OVC022 73.2 68.2 84% 30.11 0.0
22 10:35 S 3 10.00 Overcast BKN012 BKN022 OVC030 72.5 68 86% 30.11 0.0
22 10:15 SE 3 10.00 Overcast BKN009 BKN014 OVC019 71.6 67.8 88% 30.11 0.0
22 09:55 Calm 10.00 Overcast BKN009 BKN016 OVC028 70.7 67.5 90% 30.11 0.0
22 09:35 Calm 10.00 Overcast BKN009 OVC014 70.2 67.1 90% 30.11 0.0
22 09:15 Calm 10.00 Overcast OVC011 70 67.3 91% 30.11 0.0
22 08:55 Calm 10.00 Overcast SCT005 OVC011 68.7 67.6 96% 30.11 0.0
22 08:35 Calm 10.00 Overcast OVC009 68.2 68 99% 30.11 0.0
22 08:15 Calm 10.00 Overcast OVC011 68 67.8 99% 30.1 0.0
22 07:55 Calm 10.00 Overcast OVC011 67.5 67.5 67.5 66.6 100% 30.1 0.0
22 07:35 Calm 7.00 Overcast BKN011 OVC014 67.5 67.5 100% 30.09 0.0
22 07:15 Calm 1.50 Light Drizzle SCT002 OVC013 67.3 67.3 100% 30.09 0.0
22 06:55 Calm 1.25 Fog/Mist BKN002 OVC013 66.9 66.9 100% 30.09 0.0
22 06:35 Calm 1.00 Fog/Mist OVC002 67.1 67.1 100% 30.09 0.0
22 06:15 Calm 2.50 Fog/Mist SCT002 OVC014 66.7 66.7 100% 30.09 0.0
22 05:55 Calm 1.00 Fog/Mist OVC002 66.7 66.7 100% 30.09 0.0
22 05:35 Calm 0.25 Fog OVC002 66.7 66.7 100% 30.09 0.0
22 05:15 Calm 0.25 Fog OVC002 66.7 66.7 100% 30.09 0.0
22 04:55 Calm 1.25 Fog/Mist BKN002 BKN070 66.9 66.7 99% 30.08 0.0
22 04:35 Calm 7.00 Partly Cloudy SCT002 SCT070 67.1 67.1 100% 30.07 0.0
22 04:15 Calm 7.00 Mostly Cloudy SCT002 SCT024 BKN047 67.1 66.9 99% 30.08 0.0
22 03:55 Calm 7.00 Overcast SCT027 BKN047 OVC065 67.1 67.1 100% 30.08 0.0
22 03:35 Calm 10.00 Overcast BKN027 OVC033 67.5 67.5 100% 30.09 0.0
22 03:15 Calm 7.00 Overcast SCT027 BKN035 OVC060 67.1 67.1 100% 30.09 0.0
22 02:55 Calm 4.00 Fog/Mist SCT002 BKN010 OVC070 67.1 67.1 100% 30.09 0.0
22 02:35 Calm 3.00 Fog/Mist BKN002 OVC010 67.1 66.7 99% 30.1 0.0
22 02:15 Calm 3.00 Fog/Mist BKN002 OVC010 67.1 66.9 99% 30.11 0.0
22 01:55 Calm 0.25 Fog OVC002 66.7 66.6 71.6 66.7 99% 30.12 0.0
22 01:35 Calm 0.25 Fog OVC002 67.1 67.1 100% 30.12 0.0
22 01:15 Calm 0.25 Fog OVC002 67.1 66.7 99% 30.13 0.0
22 00:55 Calm 0.25 Fog OVC002 67.1 67.1 100% 30.12 0.0
22 00:35 Calm 0.75 Fog/Mist BKN002 67.8 67.5 99% 30.12 0.0
22 00:15 Calm 7.00 Fair CLR 68 67.6 99% 30.12 0.0
21 23:55 Calm 7.00 Fair CLR 68.2 68 99% 30.13 0.0
21 23:35 Calm 7.00 Fair CLR 68.2 67.6 98% 30.13 0.0
21 23:15 Calm 10.00 Fair CLR 68.9 68.2 98% 30.13 0.0
21 22:55 Calm 10.00 Fair CLR 68.9 68.4 98% 30.14 0.0
Date Time (edt) Wind (mph) Vis. (mi.) Weather Sky Cond. Air Dwpt Max. Min. Relative Humidity Wind Chill (F) Heat Index (F) altimeter (in) sea level (mb) 1 hr 3 hr 6 hr
6 hour
Temperature (F) Pressure Precipitation (in)
3 day Weather History for - KPSK
Weather observations for the past three days for
Dublin / New River Valley
Imperial (Metric)
Date Time (edt) Wind (mph) Vis. (mi.) Weather Sky Cond. Temperature (F) Relative Humidity Wind Chill (F) Heat Index (F) Pressure Precipitation (in)
Air Dwpt 6 hour altimeter (in) sea level (mb) 1 hr 3 hr 6 hr
Max. Min.
24 22:35 SW 3 10.00 Light Rain OVC065 72 70 94% 30.25 0.0
24 22:15 Calm 10.00 Overcast SCT026 OVC065 72 70 94% 30.25 0.0
24 21:55 Calm 10.00 Overcast SCT026 SCT039 OVC075 72.3 70.2 93% 30.25 0.0
24 21:35 Calm 10.00 Overcast OVC075 72.9 69.8 90% 30.25 0.0
24 21:15 Calm 10.00 Overcast SCT065 OVC075 72.5 69.8 91% 30.24 0.0
24 20:55 Calm 10.00 Mostly Cloudy BKN075 BKN090 72.7 69.8 91% 30.24 0.0
24 20:35 Calm 10.00 Fair CLR 73.6 69.8 88% 30.23 0.0
24 20:15 S 3 10.00 Fair CLR 73.9 70 88% 30.22 0.0
24 19:55 Calm 10.00 Partly Cloudy SCT025 74.8 69.1 76.6 71.6 82% 30.22 0.0 0.01
24 19:35 S 3 10.00 Partly Cloudy SCT025 SCT030 75.2 69.6 83% 75 30.22 0.0
24 19:15 S 3 10.00 Mostly Cloudy BKN022 BKN028 75.6 70 83% 76 30.21 0.0
24 18:55 SE 3 10.00 Mostly Cloudy BKN022 BKN030 76.5 69.4 79% 78 30.2 0.0
24 18:35 Calm 10.00 Mostly Cloudy SCT022 BKN030 BKN035 76.5 68.2 76% 78 30.19 0.0
24 18:15 Calm 10.00 Mostly Cloudy SCT030 BKN036 BKN041 76.3 67.3 74% 78 30.2 0.0
24 17:55 Calm 10.00 Overcast SCT030 BKN037 OVC050 75.6 67.8 77% 77 30.21 0.0
24 17:35 Calm 10.00 Overcast SCT028 BKN042 OVC050 75.2 67.6 77% 76 30.22 0.0
24 17:15 NE 3 10.00 Overcast SCT028 SCT033 OVC041 75 68 79% 76 30.22 0.0
24 16:55 NE 5 10.00 Overcast SCT024 BKN043 OVC080 75.2 68 78% 76 30.22 0.0 0.01
24 16:35 N 5 10.00 Mostly Cloudy SCT022 BKN030 BKN038 75 67.6 78% 76 30.22 0.0
24 16:15 NW 5 10.00 Partly Cloudy SCT036 SCT042 SCT075 75.2 67.3 77% 76 30.22 0.0
24 15:55 Calm 10.00 Mostly Cloudy SCT023 SCT030 BKN075 74.1 67.5 80% 30.22 0.0
24 15:35 N 6 10.00 Overcast SCT016 OVC023 72.7 67.5 84% 30.23 0.0
24 15:15 N 7 10.00 Overcast BKN016 BKN023 OVC060 72.9 68 85% 30.24 0.0
24 14:55 NW 5 10.00 Light Rain SCT018 SCT032 BKN040 73.8 68.9 85% 30.24 0.0 0.01
24 14:35 W 7 10.00 Mostly Cloudy SCT027 BKN033 BKN046 74.3 69.4 85% 30.25 0.0 0.01
24 14:15 NW 6 10.00 Light Rain SCT020 BKN029 OVC042 72.5 68.7 88% 30.25 0.0 0.01
24 13:55 Calm 7.00 Rain SCT018 OVC026 71.8 68 73 67.5 88% 30.25 0.0 0.01
24 13:35 Calm 10.00 Overcast OVC028 72.9 66.7 81% 30.25 0.0
24 13:15 SW 5 10.00 Overcast BKN030 BKN037 OVC060 72.9 68.2 85% 30.25 0.0
24 12:55 SW 3 5.00 Rain BKN030 OVC035 71.4 68 89% 30.25 0.0
24 12:35 W 3 10.00 Drizzle SCT016 OVC035 72 67.8 87% 30.26 0.0
24 12:15 W 5 10.00 Light Rain BKN014 OVC040 72.9 67.8 84% 30.25 0.0
24 11:55 W 3 10.00 Overcast BKN012 BKN028 OVC034 72.9 68 85% 30.24 0.0 0.01
24 11:35 W 6 10.00 Light Rain SCT012 BKN030 OVC110 72.3 67.8 86% 30.24 0.0 0.01
24 11:15 W 5 10.00 Light Rain SCT055 SCT075 OVC110 71.4 67.6 88% 30.24 0.0 0.01
24 10:55 W 5 10.00 Light Rain SCT060 BKN070 OVC100 70.9 68.2 91% 30.25 0.0
24 10:35 W 6 7.00 Light Rain SCT041 SCT060 OVC100 70.5 68.5 93% 30.25 0.0
24 10:15 W 5 10.00 Light Rain SCT039 BKN060 OVC070 70 68.2 94% 30.24 0.0
24 09:55 Calm 10.00 Light Rain SCT037 OVC070 69.6 67.8 94% 30.24 0.0
24 09:35 SW 3 10.00 Overcast SCT030 SCT038 OVC070 69.3 67.8 95% 30.23 0.0
24 09:15 Calm 10.00 Overcast BKN028 BKN035 OVC070 68.9 67.3 95% 30.24 0.0
24 08:55 Calm 10.00 Overcast SCT028 BKN070 OVC080 68.4 67.1 96% 30.23 0.0
24 08:35 Calm 10.00 Overcast SCT060 SCT070 OVC090 68 67.1 97% 30.23 0.0
24 07:55 Calm 5.00 Fog/Mist SCT002 OVC022 67.6 67.3 68.5 67.3 99% 30.22 0.0 0.06
24 07:35 NW 3 7.00 Overcast SCT002 BKN024 OVC075 67.6 67.1 98% 30.22 0.0
24 07:15 Calm 7.00 Overcast BKN024 BKN065 OVC085 67.3 66.7 98% 30.21 0.0
24 06:55 Calm 10.00 Overcast BKN065 OVC085 67.5 67.1 99% 30.2 0.0
24 06:35 Calm 10.00 Mostly Cloudy SCT048 BKN060 BKN095 67.6 67.1 98% 30.2 0.0
24 06:15 Calm 10.00 Mostly Cloudy SCT046 BKN070 BKN095 67.8 67.1 98% 30.2 0.0
24 05:55 Calm 10.00 Overcast SCT038 BKN050 OVC070 67.8 67.3 98% 30.2 0.0 0.05
24 05:35 Calm 10.00 Light Drizzle SCT003 BKN037 OVC044 67.3 67.1 99% 30.2 0.0 0.05
24 05:15 Calm 3.00 Heavy Rain SCT003 BKN029 OVC036 67.8 67.5 99% 30.21 0.0 0.04
24 04:55 NW 5 5.00 Fog/Mist SCT003 BKN035 OVC050 68.2 68 99% 30.2 0.0 0.01 0.01
24 04:35 Calm 7.00 Overcast SCT003 BKN050 OVC095 68.2 68 99% 30.19 0.0
24 04:15 Calm 7.00 Overcast SCT050 BKN080 OVC095 68.2 68 99% 30.19 0.0
24 03:35 Calm 7.00 Overcast OVC090 68 67.8 99% 30.19 0.0
24 03:15 Calm 7.00 Overcast OVC080 68.2 68 99% 30.19 0.0
24 02:55 Calm 7.00 Overcast OVC080 68.4 68 99% 30.19 0.0
24 02:35 Calm 10.00 Overcast SCT036 BKN060 OVC080 68.4 68.2 99% 30.19 0.0
24 02:15 Calm 7.00 Overcast SCT036 OVC060 68.2 68 99% 30.19 0.0
24 01:55 Calm 10.00 Overcast BKN060 OVC070 68.4 68.2 72.9 68.2 99% 30.19 0.0 0.05
24 01:35 Calm 5.00 Fog/Mist SCT001 OVC060 68.2 68 99% 30.19 0.0
24 01:15 Calm 2.50 Fog/Mist BKN001 BKN065 68.2 68 99% 30.19 0.0
24 00:55 Calm 5.00 Fog/Mist SCT001 BKN075 68.2 68 99% 30.19 0.0
24 00:35 W 3 7.00 Fair CLR 68.4 68 99% 30.2 0.0
24 00:15 Calm 10.00 Fair CLR 68.4 68 99% 30.19 0.0
23 23:55 SE 3 5.00 Fog/Mist SCT060 SCT075 BKN110 68.5 68.2 99% 30.19 0.0
23 23:35 Calm 10.00 Overcast SCT090 OVC110 68.9 68 97% 30.19 0.0
23 23:15 Calm 10.00 Light Rain SCT050 SCT070 OVC090 69.1 68 96% 30.2 0.0
23 22:55 S 3 7.00 Light Rain SCT070 OVC080 69.1 68.2 97% 30.21 0.0 0.05 0.05
23 22:35 Calm 7.00 Rain SCT055 BKN090 OVC110 69.3 67.6 95% 30.2 0.0 0.02
23 22:15 Calm 10.00 Rain SCT055 BKN070 OVC110 70.3 67.6 91% 30.2 0.0
23 21:55 Calm 10.00 Mostly Cloudy SCT055 BKN070 BKN080 70.2 67.6 92% 30.19 0.0
23 21:15 NW 3 10.00 Mostly Cloudy SCT035 BKN085 BKN110 69.8 68 94% 30.19 0.0
23 20:55 N 3 10.00 Overcast SCT037 BKN085 OVC120 70.3 68 92% 30.18 0.0
23 20:35 NW 3 10.00 Overcast SCT039 SCT060 OVC120 71.2 68.9 92% 30.17 0.0
23 20:15 Calm 10.00 Light Rain SCT050 SCT075 OVC110 72 68.4 89% 30.17 0.0
23 19:55 Calm 7.00 Rain SCT055 SCT065 BKN120 73 68.2 82.8 70.3 85% 30.16 0.0 0.3
23 19:35 N 3 10.00 Mostly Cloudy SCT043 BKN055 BKN065 73.6 68.5 84% 30.16 0.0
23 19:15 Calm 10.00 Overcast SCT028 BKN045 OVC120 72.7 67.8 85% 30.15 0.0
23 18:55 NW 5 10.00 Mostly Cloudy SCT030 SCT045 BKN120 71.8 68 88% 30.14 0.0
23 18:35 NW 6 10.00 Mostly Cloudy SCT043 BKN065 71.6 68 88% 30.14 0.0
23 18:15 N 8 10.00 Overcast SCT043 OVC065 72.9 69.3 89% 30.14 0.0
23 17:55 Calm 10.00 Overcast SCT065 OVC070 73.4 68.7 85% 30.14 0.0
23 17:35 Calm 10.00 Overcast SCT065 OVC075 73.6 69.4 87% 30.14 0.0
23 17:15 NW 5 10.00 Mostly Cloudy SCT075 SCT095 BKN110 73.6 70.9 91% 30.14 0.0
23 16:55 Calm 10.00 Overcast SCT027 SCT055 OVC110 72.9 70.2 91% 30.13 0.0 0.06 0.3
23 16:35 Calm 10.00 Overcast SCT021 BKN055 OVC090 71.2 69.3 94% 30.14 0.0 0.06
23 16:15 Calm 2.50 Heavy Rain SCT017 BKN050 OVC090 70.7 69.1 95% 30.15 0.0 0.05
23 15:55 Calm 1.50 Heavy Rain SCT014 BKN048 OVC065 70.7 69.1 95% 30.16 0.0 0.24
23 15:35 N 6 5.00 Heavy Rain SCT026 BKN035 OVC065 71.8 69.1 91% 30.15 0.0 0.09
23 15:15 N 3 5.00 Rain BKN028 BKN034 OVC047 73.8 68.2 83% 30.14 0.0 0.02
23 14:55 Calm 10.00 Overcast SCT028 BKN036 OVC055 78.1 66.4 67% 80 30.14 0.0
23 14:35 S 5 10.00 Mostly Cloudy SCT031 SCT040 BKN065 82.6 66.9 59% 85 30.14 0.0
23 14:15 SE 5 10.00 Mostly Cloudy SCT031 SCT040 BKN110 80.8 67.8 65% 83 30.15 0.0
23 13:55 Calm 10.00 Thunderstorm SCT040 SCT065 BKN090 79.7 66.2 80.6 66.7 63% 82 30.14 0.0
23 13:35 Calm 10.00 Light Rain SCT033 SCT043 OVC100 79.3 68.4 69% 82 30.16 0.0
23 13:15 Calm 10.00 Partly Cloudy SCT033 SCT040 SCT070 80.2 66.6 63% 82 30.16 0.0
23 12:55 W 3 10.00 Partly Cloudy SCT035 SCT043 80.1 66.7 64% 82 30.16 0.0
23 12:35 Calm 10.00 Partly Cloudy SCT039 SCT046 79.5 67.3 66% 82 30.17 0.0
23 12:15 W 3 10.00 Fair CLR 78.3 66.4 67% 80 30.17 0.0
23 11:55 Calm 10.00 Partly Cloudy SCT065 77.2 66.2 69% 79 30.17 0.0
23 11:35 Calm 10.00 Mostly Cloudy BKN055 76.5 67.8 75% 78 30.18 0.0
23 11:15 Calm 10.00 Mostly Cloudy SCT014 BKN065 BKN075 75.7 67.1 75% 77 30.18 0.0
23 10:55 Calm 10.00 Mostly Cloudy SCT014 BKN065 74.5 68.2 81% 30.18 0.0
23 10:35 Calm 10.00 Partly Cloudy SCT075 73.6 67.3 81% 30.18 0.0
23 10:15 Calm 10.00 Partly Cloudy SCT007 SCT075 SCT085 72.1 67.6 86% 30.17 0.0
23 09:55 Calm 10.00 Overcast SCT007 BKN075 OVC085 70 67.6 92% 30.17 0.0
23 09:35 S 3 10.00 Mostly Cloudy BKN070 69.6 67.6 93% 30.17 0.0
23 09:15 Calm 10.00 Mostly Cloudy SCT070 BKN080 68.5 67.8 98% 30.17 0.0
23 08:55 Calm 10.00 Partly Cloudy SCT080 67.6 67.6 100% 30.17 0.0
23 08:35 Calm 7.00 Mostly Cloudy BKN001 BKN065 67.1 67.1 100% 30.17 0.0
23 08:15 Calm 4.00 Fog/Mist BKN001 OVC075 67.1 67.1 100% 30.16 0.0
23 07:55 Calm 5.00 Fog/Mist SCT001 SCT075 66.7 66.7 66.7 65.3 100% 30.16 0.0
23 07:35 Calm 1.75 Fog/Mist BKN001 66.4 66.4 100% 30.16 0.0
23 07:15 Calm 0.15 Fog OVC001 65.8 65.8 100% 30.15 0.0
23 06:55 Calm 0.15 Fog OVC001 65.5 65.5 100% 30.14 0.0
23 06:35 Calm 0.15 Fog OVC001 65.5 65.5 100% 30.13 0.0
23 06:15 Calm 0.75 Fog/Mist OVC001 65.5 65.5 100% 30.13 0.0
23 05:55 S 3 1.25 Fog/Mist OVC001 65.5 65.5 100% 30.13 0.0
23 05:35 Calm 4.00 Fog/Mist BKN001 BKN060 BKN085 66.2 66.2 100% 30.12 0.0
23 05:15 Calm 3.00 Fog/Mist BKN001 BKN060 OVC085 66.2 66.2 100% 30.12 0.0
23 04:55 Calm 3.00 Fog/Mist OVC001 66.2 66.2 100% 30.12 0.0
23 04:35 Calm 3.00 Fog/Mist BKN001 OVC070 66.2 66.2 100% 30.11 0.0
23 04:15 Calm 0.75 Fog/Mist OVC001 66.2 66.2 100% 30.11 0.0
23 03:55 Calm 0.50 Fog OVC001 66 66 100% 30.11 0.0
23 03:35 Calm 0.50 Fog OVC001 66.2 66.2 100% 30.12 0.0
23 03:15 Calm 1.00 Fog/Mist OVC001 65.8 65.8 100% 30.11 0.0
23 02:55 Calm 2.00 Fog/Mist BKN001 BKN080 66.2 66.2 100% 30.12 0.0
23 02:35 Calm 0.50 Fog OVC001 66.2 66.2 100% 30.12 0.0
23 02:15 SW 3 0.25 Fog OVC001 66.2 66.2 100% 30.12 0.0
23 01:55 Calm 0.25 Fog OVC003 66.6 66.4 72.3 65.7 99% 30.12 0.0 0.01 0.01
23 01:35 Calm 3.00 Fog/Mist BKN003 66 65.8 99% 30.12 0.0
23 01:15 Calm 5.00 Fog/Mist BKN003 65.8 65.5 99% 30.12 0.0
23 00:55 Calm 7.00 Mostly Cloudy BKN003 66 65.7 99% 30.13 0.0
23 00:35 Calm 5.00 Fog/Mist SCT003 66.4 66.2 99% 30.12 0.0
23 00:15 Calm 7.00 Fair CLR 66.4 66.2 99% 30.12 0.0
22 23:55 W 3 5.00 Fog/Mist CLR 66.7 66.4 99% 30.11 0.0
22 23:35 W 3 7.00 Fair CLR 67.1 66.4 98% 30.11 0.0
22 23:15 Calm 10.00 Partly Cloudy SCT009 SCT048 SCT055 67.3 66.7 98% 30.12 0.0
22 22:55 Calm 10.00 Overcast SCT005 OVC048 67.1 66.6 98% 30.12 0.0
22 22:35 E 3 7.00 Overcast OVC005 67.5 67.1 99% 30.12 0.0
22 22:15 Calm 10.00 Mostly Cloudy BKN005 BKN060 67.6 66.7 97% 30.12 0.0
22 21:55 E 3 10.00 Mostly Cloudy SCT003 BKN080 68 66.7 96% 30.1 0.0
22 21:35 Calm 10.00 Overcast OVC080 69.1 67.3 94% 30.1 0.0
22 21:15 Calm 10.00 Overcast OVC080 69.1 67.1 93% 30.09 0.0
22 20:55 Calm 10.00 Thunderstorm in Vicinity SCT060 OVC080 69.1 66.2 91% 30.08 0.0
22 20:35 SW 5 10.00 Thunderstorm SCT045 BKN060 BKN080 70 66.6 89% 30.08 0.0
22 20:15 SW 7 7.00 Light Rain SCT037 BKN043 OVC065 70.9 67.5 89% 30.07 0.0
22 19:55 SW 3 5.00 Thunderstorm Light Rain in Vicinity SCT028 OVC038 72.5 66.7 78.3 71.4 82% 30.06 0.0 0.3 0.33
22 19:35 Calm 1.25 Light Rain SCT014 BKN034 OVC040 71.6 67.3 86% 30.04 0.0 0.14
22 19:15 SW 8 10.00 Partly Cloudy SCT080 SCT090 77 68.4 75% 79 30.03 0.0
22 18:55 SW 7 10.00 Partly Cloudy SCT034 SCT041 SCT048 77.5 69.1 75% 79 30.03 0.0
22 18:35 SW 8 10.00 Mostly Cloudy SCT034 BKN044 BKN050 77 68.9 76% 79 30.03 0.0
22 18:15 S 7 10.00 Partly Cloudy SCT044 SCT050 77.5 68.9 75% 79 30.02 0.0
22 17:55 S 6 10.00 Partly Cloudy SCT048 SCT055 77.4 68.2 73% 79 30.03 0.0
22 17:35 SW 10 10.00 Fair CLR 77.9 68 72% 80 30.03 0.0
22 17:15 S 7 10.00 Fair CLR 77.4 67.5 72% 79 30.04 0.0
22 16:35 S 7 10.00 Fair CLR 77.5 67.8 72% 79 30.04 0.0
22 16:15 S 3 10.00 Fair CLR 75.9 67.6 76% 77 30.05 0.0
22 15:55 S 6 10.00 Partly Cloudy SCT095 SCT120 74.7 68.4 81% 30.06 0.0 0.03
22 15:35 SW 9 10.00 Mostly Cloudy SCT035 SCT060 BKN100 72.9 68.9 87% 30.06 0.0 0.03
22 15:15 S 14 G 18 4.00 Heavy Rain SCT035 BKN090 OVC110 72.5 68 86% 30.07 0.0 0.02
22 14:55 S 14 10.00 Partly Cloudy SCT065 SCT075 SCT110 76.6 67.6 74% 78 30.07 0.0
22 14:35 S 12 10.00 Partly Cloudy SCT100 SCT120 76.5 68.2 76% 78 30.06 0.0
22 14:15 S 10 10.00 Partly Cloudy SCT027 SCT100 SCT120 77 67.8 73% 79 30.08 0.0
22 13:55 S 8 10.00 Partly Cloudy SCT029 SCT037 SCT100 78.3 67.8 79.5 67.5 70% 80 30.07 0.0
22 13:35 S 6 10.00 Mostly Cloudy BKN030 BKN037 BKN110 79.2 67.8 68% 82 30.08 0.0
22 13:15 SW 5 10.00 Mostly Cloudy BKN027 BKN110 78.4 67.1 68% 81 30.08 0.0
22 12:55 S 6 10.00 Overcast SCT027 BKN040 OVC110 77.4 66.9 70% 79 30.09 0.0
22 12:35 SW 5 10.00 Mostly Cloudy SCT021 SCT033 BKN040 77 67.3 72% 79 30.1 0.0
22 12:15 S 5 10.00 Mostly Cloudy SCT023 SCT030 BKN036 76.5 67.6 74% 78 30.1 0.0
22 11:55 W 3 10.00 Mostly Cloudy SCT021 SCT030 BKN044 76.1 67.8 76% 77 30.1 0.0
22 11:35 S 5 10.00 Mostly Cloudy SCT016 SCT021 BKN030 74.8 68.5 81% 30.1 0.0
22 11:15 S 5 10.00 Mostly Cloudy BKN014 BKN020 BKN028 73.8 68 82% 30.11 0.0
22 10:55 Calm 10.00 Light Rain BKN014 OVC022 73.2 68.2 84% 30.11 0.0
22 10:35 S 3 10.00 Overcast BKN012 BKN022 OVC030 72.5 68 86% 30.11 0.0
22 10:15 SE 3 10.00 Overcast BKN009 BKN014 OVC019 71.6 67.8 88% 30.11 0.0
22 09:55 Calm 10.00 Overcast BKN009 BKN016 OVC028 70.7 67.5 90% 30.11 0.0
22 09:35 Calm 10.00 Overcast BKN009 OVC014 70.2 67.1 90% 30.11 0.0
22 09:15 Calm 10.00 Overcast OVC011 70 67.3 91% 30.11 0.0
22 08:55 Calm 10.00 Overcast SCT005 OVC011 68.7 67.6 96% 30.11 0.0
22 08:35 Calm 10.00 Overcast OVC009 68.2 68 99% 30.11 0.0
22 08:15 Calm 10.00 Overcast OVC011 68 67.8 99% 30.1 0.0
22 07:55 Calm 10.00 Overcast OVC011 67.5 67.5 67.5 66.6 100% 30.1 0.0
22 07:35 Calm 7.00 Overcast BKN011 OVC014 67.5 67.5 100% 30.09 0.0
22 07:15 Calm 1.50 Light Drizzle SCT002 OVC013 67.3 67.3 100% 30.09 0.0
22 06:55 Calm 1.25 Fog/Mist BKN002 OVC013 66.9 66.9 100% 30.09 0.0
22 06:35 Calm 1.00 Fog/Mist OVC002 67.1 67.1 100% 30.09 0.0
22 06:15 Calm 2.50 Fog/Mist SCT002 OVC014 66.7 66.7 100% 30.09 0.0
22 05:55 Calm 1.00 Fog/Mist OVC002 66.7 66.7 100% 30.09 0.0
22 05:35 Calm 0.25 Fog OVC002 66.7 66.7 100% 30.09 0.0
22 05:15 Calm 0.25 Fog OVC002 66.7 66.7 100% 30.09 0.0
22 04:55 Calm 1.25 Fog/Mist BKN002 BKN070 66.9 66.7 99% 30.08 0.0
22 04:35 Calm 7.00 Partly Cloudy SCT002 SCT070 67.1 67.1 100% 30.07 0.0
22 04:15 Calm 7.00 Mostly Cloudy SCT002 SCT024 BKN047 67.1 66.9 99% 30.08 0.0
22 03:55 Calm 7.00 Overcast SCT027 BKN047 OVC065 67.1 67.1 100% 30.08 0.0
22 03:35 Calm 10.00 Overcast BKN027 OVC033 67.5 67.5 100% 30.09 0.0
22 03:15 Calm 7.00 Overcast SCT027 BKN035 OVC060 67.1 67.1 100% 30.09 0.0
22 02:55 Calm 4.00 Fog/Mist SCT002 BKN010 OVC070 67.1 67.1 100% 30.09 0.0
22 02:35 Calm 3.00 Fog/Mist BKN002 OVC010 67.1 66.7 99% 30.1 0.0
22 02:15 Calm 3.00 Fog/Mist BKN002 OVC010 67.1 66.9 99% 30.11 0.0
22 01:55 Calm 0.25 Fog OVC002 66.7 66.6 71.6 66.7 99% 30.12 0.0
22 01:35 Calm 0.25 Fog OVC002 67.1 67.1 100% 30.12 0.0
22 01:15 Calm 0.25 Fog OVC002 67.1 66.7 99% 30.13 0.0
22 00:55 Calm 0.25 Fog OVC002 67.1 67.1 100% 30.12 0.0
22 00:35 Calm 0.75 Fog/Mist BKN002 67.8 67.5 99% 30.12 0.0
22 00:15 Calm 7.00 Fair CLR 68 67.6 99% 30.12 0.0
21 23:55 Calm 7.00 Fair CLR 68.2 68 99% 30.13 0.0
21 23:35 Calm 7.00 Fair CLR 68.2 67.6 98% 30.13 0.0
21 23:15 Calm 10.00 Fair CLR 68.9 68.2 98% 30.13 0.0
21 22:55 Calm 10.00 Fair CLR 68.9 68.4 98% 30.14 0.0
Date Time (edt) Wind (mph) Vis. (mi.) Weather Sky Cond. Air Dwpt Max. Min. Relative Humidity Wind Chill (F) Heat Index (F) altimeter (in) sea level (mb) 1 hr 3 hr 6 hr
6 hour
Temperature (F) Pressure Precipitation (in)


Weather History V4.0 ©2002- Airsports Net